CZ-6A DEB, 54493

Orbit data source: Space-Track

CZ-6A DEB, 54493 is space debris in SSO originally from a launch on Fri, 11 Nov 2022 UTC launched from the Taiyaun Space Center, China (TSC). Debris objects in space refer to the collection of defunct objects orbiting the Earth. Examples of debris include non-operational satellites, rocket bodies, and fragments generated from explosions, collisions, or faulty payload assembly.

Loading next visibility...
Identifier
54493, 2022-151HV
Orbit
SSO
Country
Flag of CNCN / PRC
Related business
Manufacturer
SAST
Mission
Spacecraft
Bus & Motor
Unknown
Mass
Unknown
Launch date (UTC)
2022-11-11 (4 years ago)
Launch vehicle
Unknown
Launch site
Taiyaun Space Center, China (TSC)
Object type
Payload
Rocket body
Debris
Shape & HBR
Unknown shape, 0.1 m
Radar Cross Section
Medium (>0.1 m² and <1 m²)

Expand to show TLE details & history
Last TLE update: 2 days ago

TLE from 2 days ago
0 CZ-6A DEB
1 54493U 22151HV  26171.34136135  .00003227  00000-0  23482-2 0  9994
2 54493  98.9822 136.1182 0186573  91.5089 270.7450 13.88941614181649
Epoch: 2026-06-20T08:11Z
TLE epoch observation values (Epoch: 2026-06-20T08:11:33.620Z)
Latitude
0.00004°
Longitude
104.67074°
Altitude
935.978 km
Speed
7.383 km/s
True Right ascension
09h 04m 28s
True Declination
0° 00' 00"
Sunlit
Object was in daylight at epoch
Visualization orbit readout
Latitude
Unknown
Longitude
Unknown
Altitude
Unknown
Speed
Unknown
Apparent Right ascension
Unknown
Apparent Declination
Unknown
Sunlit
N/A
Visualization observer readout
Local Sidereal Time
21:55:32
Azimuth
Unknown
Elevation
Unknown
Doppler factor
Unknown
Orbital elements
Apogee altitude
1,065.896 km
Perigee altitude
793.212 km
Semi-major axis
7,307.691 km
Eccentricity
0.01866
Inclination
98.9822°
RAAN
136.1182°
Arg. of periapsis
91.5089°
True anomaly
268.60706°
Mean anomaly
270.745°
Eccentric anomaly
269.67603°
Mean motion
3.47434 °/min
Orbital period
103.62 mins
BSTAR
0.0023482
Loading maneuver chart data...
Computing Atmospheric mass density...
Loading historical data...
Loading historical data...
Loading historical data...
Loading historical data...
Loading historical data...
Loading historical data...
Loading historical data...

Documentation

Showing up to 5 results
|